PROFILE

 METAR AND TAF INFORMATION
ADDS - METARS form results

(0543 UTC 26 January 2021)
http://aviationweather.gov/metar/data/
 
GLRB 260500Z 00000KT 7000 VCBR FEW010 24/23 Q1010 NOSIG
TAF COR GLRB 252300Z 2600/2700 00000KT 9000 BKN012 TEMPO 2600/2604 VRB02KT 7000 BKN011 BECMG 2605/2607 00000KT 2000 BR SCT009 

 AIRPORT MAP

 RUNWAY INFORMATION
Runway 04 Runway length 11000 ft Runway width 150 ft
Runway elevation 29 ft Runway displaced threshold 0 ft Runway heading 31
Runway 22 Runway length 11000 ft Runway width 150 ft
Runway elevation 25 ft Runway displaced threshold 1200 ft Runway heading 211

 AIRPORT FREQUENCIES
Type A/G Name A/G VOICE Frequency 345.2 MHZ
Type APP Name ROBERTS AP Frequency 124.5 MHZ
Type GND Name GND Frequency 121.9 MHZ
Type TWR Name ROBERTS TW Frequency 118.3 MHZ

 AIRPORT NEAR NAVIGATION AIDS
Type NDB Name Monrovia Roberts Frequency 263 KHZ
Type NDB Name Monrovia Roberts Frequency 372 KHZ
Type VOR-DME Name Monrovia Roberts Frequency 113800 KHZ